Regional Weather Roundup
Issued by NWS

Home | Current Version | Previous Version | Text Only | Print | Product List | Glossary Off
Versions: 1 2 3 4 5 6 7 8 9 10 11 12 13 14 15 16 17 18 19 20 21 22 23 24 25 26 27 28 29 30 31 32 33 34 35 36 37 38 39 40 41 42 43 44 45 46 47 48 49 50

000
ASUS43 KTOP 291108
RWRKS

WEATHER ROUNDUP FOR KANSAS
NATIONAL WEATHER SERVICE GOODLAND KS
600 AM CDT WED JUL 29 2015

NOTE:  "FAIR" INDICATES FEW OR NO CLOUDS BELOW 12,000 FEET WITH NO
SIGNIFICANT WEATHER AND/OR OBSTRUCTIONS TO VISIBILITY.

KSZ001>006-013>018-027>032-041>047-291200-
NORTHWEST KANSAS

CITY           SKY/WX    TMP DP  RH WIND       PRES   REMARKS
GOODLAND       MOCLDY    59  51  75 S7        30.27R
HAYS           CLOUDY    66  55  68 N7        30.13S
HILL CITY      MOCLDY    62  58  86 N7        30.18S
RUSSELL        MOCLDY    65  60  84 NE6       30.11R
$$

KSZ061>065-074>080-084>089-291200-
SOUTHWEST KANSAS

CITY           SKY/WX    TMP DP  RH WIND       PRES   REMARKS
DODGE CITY     CLOUDY    61  57  87 N22G30    30.15F
ELKHART          N/A     67  61  81 N6          N/A
GARDEN CITY    LGT RAIN  65  59  81 NE16      30.15F
GREAT BEND     MOCLDY    64  55  72 NE10      30.11S
LIBERAL        CLOUDY    66  59  77 NE17G24   30.11F
PRATT          CLOUDY    64  55  72 NE18      30.10R
$$

KSZ066>073-081>083-090>101-291200-
SOUTHEAST KANSAS

CITY           SKY/WX    TMP DP  RH WIND       PRES   REMARKS
CHANUTE        CLOUDY    78  72  81 N14G20    30.06R
COFFEYVILLE    MOCLDY    74  72  93 E3        30.01R
HUTCHINSON     CLOUDY    68  64  87 NE10G21   30.07R THUNDER
MEDICINE LODGE   N/A     73  63  70 NE17G23   30.02R
NEWTON         MOCLDY    72  61  68 NE21G26   30.12R
PARSONS        MOCLDY    75  74  96 CALM      30.03R
WICHITA INTL   MOCLDY    76  67  73 N20G25    30.05R
WICHITA JABRA  PTCLDY    73  67  81 N16G25    30.06R
WICHITA MCCONL PTCLDY    74  68  81 N17G25    30.05R
WINFIELD       PTCLDY    77  69  76 E3        30.01S
$$

KSZ007>012-019>026-033>040-048>060-102>105-291200-
NORTHEAST KANSAS

CITY           SKY/WX    TMP DP  RH WIND       PRES   REMARKS
CONCORDIA      CLOUDY    65  62  90 CALM      30.13R
EMPORIA        CLOUDY    73  68  84 NE17G23   30.09R THUNDER
LAWRENCE       CLOUDY    70  68  93 NW6       30.11R
MANHATTAN      CLOUDY    71  67  87 NE6       30.12R
MARYSVILLE     MOCLDY    64  63  94 N5        30.11R
OLATHE IND     CLOUDY    72  69  90 CALM      30.08F THUNDER
OLATHE EXE     CLOUDY    70  69  97 SE9       30.05F
SALINA         CLOUDY    68  65  90 E10       30.08F
TOPEKA BILLARD TSTM      71  70  96 NE7       30.08R FOG
TOPEKA FORBES  RAIN      72  69  90 SE10      30.08F FOG
$$



USA.gov is the U.S. government's official web portal to all federal, state and local government web resources and services.